Time,TemperatureF,DewpointF,PressureIn,WindDirection,WindDirectionDegrees,WindSpeedMPH,WindSpeedGustMPH,Humidity,HourlyPrecipIn,Conditions,Clouds,dailyrainin,SoftwareType,DateUTC
2013-04-14 00:02:00,49.8,32.5,29.39,ESE,112,4.0,4.0,51,0.00,,,0.00,meteohub,2013-04-14 05:02:00,
2013-04-14 00:07:00,49.8,32.5,29.39,East,90,2.0,4.0,51,0.00,,,0.00,meteohub,2013-04-14 05:07:00,
2013-04-14 00:12:00,50.0,32.2,29.39,South,180,0.0,4.0,50,0.00,,,0.00,meteohub,2013-04-14 05:12:00,
2013-04-14 00:17:00,50.0,32.2,29.39,ESE,112,2.0,4.0,50,0.00,,,0.00,meteohub,2013-04-14 05:17:00,
2013-04-14 00:23:00,50.0,32.2,29.39,ESE,112,2.0,2.0,50,0.00,,,0.00,meteohub,2013-04-14 05:23:00,
2013-04-14 00:28:00,49.8,32.0,29.39,ESE,112,2.0,2.0,50,0.00,,,0.00,meteohub,2013-04-14 05:28:00,
2013-04-14 00:33:00,49.8,32.0,29.39,ESE,112,2.0,2.0,50,0.00,,,0.00,meteohub,2013-04-14 05:33:00,
2013-04-14 00:38:00,49.5,32.2,29.39,SSE,158,1.0,3.0,51,0.00,,,0.00,meteohub,2013-04-14 05:38:00,
2013-04-14 00:44:00,49.3,32.0,29.39,SSE,158,2.0,3.0,51,0.00,,,0.00,meteohub,2013-04-14 05:44:00,
2013-04-14 00:49:00,49.3,32.0,29.39,SSE,158,2.0,3.0,51,0.00,,,0.00,meteohub,2013-04-14 05:49:00,
2013-04-14 00:54:00,49.1,31.8,29.36,ESE,112,2.0,3.0,51,0.00,,,0.00,meteohub,2013-04-14 05:54:00,
2013-04-14 01:00:00,49.1,31.8,29.36,SE,135,0.0,3.0,51,0.00,,,0.00,meteohub,2013-04-14 06:00:00,
2013-04-14 01:05:00,48.9,31.6,29.39,SSE,158,0.0,3.0,51,0.00,,,0.00,meteohub,2013-04-14 06:05:00,
2013-04-14 01:10:00,48.7,31.5,29.39,East,90,0.0,3.0,51,0.00,,,0.00,meteohub,2013-04-14 06:10:00,
2013-04-14 01:15:00,48.7,31.5,29.39,SSE,158,3.0,3.0,51,0.00,,,0.00,meteohub,2013-04-14 06:15:00,
2013-04-14 01:20:00,48.9,32.2,29.36,ESE,112,2.0,4.0,52,0.00,,,0.00,meteohub,2013-04-14 06:20:00,
2013-04-14 01:25:00,49.1,32.2,29.36,East,90,3.0,4.0,52,0.00,,,0.00,meteohub,2013-04-14 06:25:00,
2013-04-14 01:30:00,49.3,32.9,29.36,SE,135,3.0,4.0,53,0.00,,,0.00,meteohub,2013-04-14 06:30:00,
2013-04-14 01:35:00,49.3,32.4,29.36,SSE,158,3.0,4.0,52,0.00,,,0.00,meteohub,2013-04-14 06:35:00,
2013-04-14 01:41:00,49.3,32.4,29.36,ESE,112,1.0,4.0,52,0.00,,,0.00,meteohub,2013-04-14 06:41:00,
2013-04-14 01:46:00,49.3,32.9,29.36,South,180,3.0,4.0,53,0.00,,,0.00,meteohub,2013-04-14 06:46:00,
2013-04-14 01:52:00,49.5,33.1,29.36,SSE,158,2.0,4.0,53,0.00,,,0.00,meteohub,2013-04-14 06:52:00,
2013-04-14 01:57:00,49.5,33.1,29.36,ENE,68,0.0,4.0,53,0.00,,,0.00,meteohub,2013-04-14 06:57:00,
2013-04-14 02:02:00,49.6,33.3,29.36,ESE,112,1.0,4.0,53,0.00,,,0.00,meteohub,2013-04-14 07:02:00,
2013-04-14 02:07:00,49.8,33.4,29.36,ESE,112,3.0,4.0,53,0.00,,,0.00,meteohub,2013-04-14 07:07:00,
2013-04-14 02:12:00,50.2,33.8,29.36,East,90,2.0,4.0,53,0.00,,,0.00,meteohub,2013-04-14 07:12:00,
2013-04-14 02:17:00,50.4,33.4,29.36,East,90,3.0,4.0,52,0.00,,,0.00,meteohub,2013-04-14 07:17:00,
2013-04-14 02:22:00,50.5,33.6,29.36,ESE,112,2.0,4.0,52,0.00,,,0.00,meteohub,2013-04-14 07:22:00,
2013-04-14 02:27:00,50.4,33.4,29.36,East,90,4.0,4.0,52,0.00,,,0.00,meteohub,2013-04-14 07:27:00,
2013-04-14 02:32:00,50.4,33.4,29.36,ESE,112,1.0,4.0,52,0.00,,,0.00,meteohub,2013-04-14 07:32:00,
2013-04-14 02:37:00,50.2,33.3,29.36,East,90,3.0,6.0,52,0.00,,,0.00,meteohub,2013-04-14 07:37:00,
2013-04-14 02:43:00,50.0,33.1,29.36,East,90,2.0,6.0,52,0.00,,,0.00,meteohub,2013-04-14 07:43:00,
2013-04-14 02:48:00,50.0,33.1,29.36,ENE,68,1.0,4.0,52,0.00,,,0.00,meteohub,2013-04-14 07:48:00,
2013-04-14 02:53:00,49.6,33.3,29.36,East,90,0.0,3.0,53,0.00,,,0.00,meteohub,2013-04-14 07:53:00,
2013-04-14 02:58:00,49.5,33.1,29.36,ENE,68,2.0,3.0,53,0.00,,,0.00,meteohub,2013-04-14 07:58:00,
2013-04-14 03:04:00,49.3,33.4,29.36,ENE,68,2.0,2.0,54,0.00,,,0.00,meteohub,2013-04-14 08:04:00,
2013-04-14 03:09:00,49.3,33.4,29.36,NE,45,3.0,3.0,54,0.00,,,0.00,meteohub,2013-04-14 08:09:00,
2013-04-14 03:14:00,49.1,33.6,29.36,East,90,3.0,3.0,55,0.00,,,0.00,meteohub,2013-04-14 08:14:00,
2013-04-14 03:19:00,49.1,33.6,29.36,ENE,68,4.0,4.0,55,0.00,,,0.00,meteohub,2013-04-14 08:19:00,
2013-04-14 03:24:00,48.7,33.3,29.36,East,90,4.0,5.0,55,0.00,,,0.00,meteohub,2013-04-14 08:24:00,
2013-04-14 03:30:00,48.7,33.8,29.36,ESE,112,2.0,4.0,56,0.00,,,0.00,meteohub,2013-04-14 08:30:00,
2013-04-14 03:35:00,48.6,33.6,29.36,ENE,68,3.0,4.0,56,0.00,,,0.00,meteohub,2013-04-14 08:35:00,
2013-04-14 03:40:00,48.4,33.4,29.36,East,90,3.0,4.0,56,0.00,,,0.00,meteohub,2013-04-14 08:40:00,
2013-04-14 03:45:00,48.4,33.8,29.36,ENE,68,3.0,4.0,57,0.00,,,0.00,meteohub,2013-04-14 08:45:00,
2013-04-14 03:50:00,48.4,33.8,29.34,ENE,68,2.0,7.0,57,0.00,,,0.00,meteohub,2013-04-14 08:50:00,
2013-04-14 03:55:00,48.4,33.8,29.34,ENE,68,3.0,7.0,57,0.00,,,0.00,meteohub,2013-04-14 08:55:00,
2013-04-14 04:00:00,48.2,33.8,29.34,East,90,3.0,7.0,57,0.00,,,0.00,meteohub,2013-04-14 09:00:00,
2013-04-14 04:06:00,48.4,34.3,29.34,East,90,2.0,6.0,58,0.00,,,0.00,meteohub,2013-04-14 09:06:00,
2013-04-14 04:11:00,48.2,33.8,29.34,East,90,3.0,6.0,57,0.00,,,0.00,meteohub,2013-04-14 09:11:00,
2013-04-14 04:16:00,48.4,33.8,29.34,ENE,68,4.0,6.0,57,0.00,,,0.00,meteohub,2013-04-14 09:16:00,
2013-04-14 04:22:00,48.4,33.8,29.34,East,90,3.0,5.0,57,0.00,,,0.00,meteohub,2013-04-14 09:22:00,
2013-04-14 04:27:00,48.4,33.8,29.34,East,90,4.0,5.0,57,0.00,,,0.00,meteohub,2013-04-14 09:27:00,
2013-04-14 04:32:00,48.4,33.8,29.34,East,90,3.0,5.0,57,0.00,,,0.00,meteohub,2013-04-14 09:32:00,
2013-04-14 04:37:00,48.2,33.8,29.34,ENE,68,3.0,5.0,57,0.00,,,0.00,meteohub,2013-04-14 09:37:00,
2013-04-14 04:43:00,48.0,33.6,29.34,East,90,4.0,4.0,57,0.00,,,0.00,meteohub,2013-04-14 09:43:00,
2013-04-14 04:48:00,48.0,34.0,29.34,ENE,68,2.0,4.0,58,0.00,,,0.00,meteohub,2013-04-14 09:48:00,
2013-04-14 04:53:00,47.8,33.8,29.31,East,90,2.0,4.0,58,0.00,,,0.00,meteohub,2013-04-14 09:53:00,
2013-04-14 04:58:00,47.7,34.0,29.31,East,90,3.0,4.0,59,0.00,,,0.00,meteohub,2013-04-14 09:58:00,
2013-04-14 05:03:00,47.7,34.0,29.31,ENE,68,3.0,6.0,59,0.00,,,0.00,meteohub,2013-04-14 10:03:00,
2013-04-14 05:09:00,47.5,34.0,29.31,East,90,3.0,6.0,59,0.00,,,0.00,meteohub,2013-04-14 10:09:00,
2013-04-14 05:14:00,47.5,34.0,29.31,East,90,4.0,6.0,59,0.00,,,0.00,meteohub,2013-04-14 10:14:00,
2013-04-14 05:19:00,47.5,34.3,29.31,ENE,68,3.0,6.0,60,0.00,,,0.00,meteohub,2013-04-14 10:19:00,
2013-04-14 05:24:00,47.5,34.3,29.31,East,90,3.0,6.0,60,0.00,,,0.00,meteohub,2013-04-14 10:24:00,
2013-04-14 05:29:00,47.3,34.2,29.31,SE,135,5.0,6.0,60,0.00,,,0.00,meteohub,2013-04-14 10:29:00,
2013-04-14 05:34:00,47.3,34.5,29.31,East,90,3.0,6.0,61,0.00,,,0.00,meteohub,2013-04-14 10:34:00,
2013-04-14 05:39:00,47.3,34.5,29.28,East,90,6.0,6.0,61,0.00,,,0.00,meteohub,2013-04-14 10:39:00,
2013-04-14 05:45:00,47.1,34.3,29.28,NE,45,2.0,6.0,61,0.00,,,0.00,meteohub,2013-04-14 10:45:00,
2013-04-14 05:50:00,46.9,34.2,29.31,ENE,68,2.0,6.0,61,0.00,,,0.00,meteohub,2013-04-14 10:50:00,
2013-04-14 05:55:00,46.8,34.0,29.31,SE,135,3.0,5.0,61,0.00,,,0.00,meteohub,2013-04-14 10:55:00,
2013-04-14 06:01:00,46.6,33.8,29.31,ESE,112,3.0,6.0,61,0.00,,,0.00,meteohub,2013-04-14 11:01:00,
2013-04-14 06:06:00,46.6,34.3,29.34,SE,135,3.0,6.0,62,0.00,,,0.00,meteohub,2013-04-14 11:06:00,
2013-04-14 06:11:00,46.6,34.7,29.34,East,90,3.0,5.0,63,0.00,,,0.00,meteohub,2013-04-14 11:11:00,
2013-04-14 06:16:00,46.6,34.7,29.34,East,90,2.0,5.0,63,0.00,,,0.00,meteohub,2013-04-14 11:16:00,
2013-04-14 06:22:00,46.6,34.7,29.36,ESE,112,3.0,5.0,63,0.00,,,0.00,meteohub,2013-04-14 11:22:00,
2013-04-14 06:27:00,46.6,34.7,29.36,ESE,112,3.0,5.0,63,0.00,,,0.00,meteohub,2013-04-14 11:27:00,
2013-04-14 06:32:00,46.6,34.7,29.36,East,90,3.0,7.0,63,0.00,,,0.00,meteohub,2013-04-14 11:32:00,
2013-04-14 06:37:00,46.8,35.2,29.34,East,90,4.0,7.0,64,0.00,,,0.00,meteohub,2013-04-14 11:37:00,
2013-04-14 06:42:00,46.9,35.4,29.34,ESE,112,4.0,7.0,64,0.00,,,0.00,meteohub,2013-04-14 11:42:00,
2013-04-14 06:47:00,47.3,35.8,29.34,ESE,112,3.0,4.0,64,0.00,,,0.00,meteohub,2013-04-14 11:47:00,
2013-04-14 06:52:00,47.7,36.1,29.34,East,90,2.0,6.0,64,0.00,,,0.00,meteohub,2013-04-14 11:52:00,
2013-04-14 06:57:00,48.0,36.5,29.34,East,90,3.0,6.0,64,0.00,,,0.00,meteohub,2013-04-14 11:57:00,
2013-04-14 07:02:00,48.2,36.1,29.34,ESE,112,2.0,6.0,63,0.00,,,0.00,meteohub,2013-04-14 12:02:00,
2013-04-14 07:07:00,48.6,36.5,29.34,SE,135,5.0,6.0,63,0.00,,,0.00,meteohub,2013-04-14 12:07:00,
2013-04-14 07:12:00,48.7,36.3,29.34,SE,135,4.0,6.0,62,0.00,,,0.00,meteohub,2013-04-14 12:12:00,
2013-04-14 07:17:00,48.9,36.5,29.34,ENE,68,3.0,6.0,62,0.00,,,0.00,meteohub,2013-04-14 12:17:00,
2013-04-14 07:22:00,49.1,36.7,29.34,ESE,112,1.0,6.0,62,0.00,,,0.00,meteohub,2013-04-14 12:22:00,
2013-04-14 07:27:00,49.5,37.0,29.34,ESE,112,3.0,6.0,62,0.00,,,0.00,meteohub,2013-04-14 12:27:00,
2013-04-14 07:32:00,49.6,36.7,29.34,South,180,2.0,6.0,61,0.00,,,0.00,meteohub,2013-04-14 12:32:00,
2013-04-14 07:38:00,50.0,37.0,29.34,East,90,4.0,6.0,61,0.00,,,0.00,meteohub,2013-04-14 12:38:00,
2013-04-14 07:43:00,50.2,37.2,29.34,South,180,4.0,6.0,61,0.00,,,0.00,meteohub,2013-04-14 12:43:00,
2013-04-14 07:48:00,50.7,37.8,29.34,ESE,112,4.0,6.0,61,0.00,,,0.00,meteohub,2013-04-14 12:48:00,
2013-04-14 07:53:00,51.4,38.1,29.34,ESE,112,3.0,8.0,60,0.00,,,0.00,meteohub,2013-04-14 12:53:00,
2013-04-14 07:58:00,51.8,37.9,29.34,South,180,6.0,8.0,59,0.00,,,0.00,meteohub,2013-04-14 12:58:00,
2013-04-14 08:04:00,52.3,38.5,29.34,ESE,112,6.0,8.0,59,0.00,,,0.00,meteohub,2013-04-14 13:04:00,
2013-04-14 08:09:00,53.1,39.2,29.34,South,180,6.0,6.0,59,0.00,,,0.00,meteohub,2013-04-14 13:09:00,
2013-04-14 08:14:00,53.6,38.8,29.34,ESE,112,6.0,6.0,57,0.00,,,0.00,meteohub,2013-04-14 13:14:00,
2013-04-14 08:20:00,54.3,39.4,29.34,ESE,112,3.0,6.0,57,0.00,,,0.00,meteohub,2013-04-14 13:20:00,
2013-04-14 08:25:00,54.5,39.2,29.31,SSE,158,3.0,8.0,56,0.00,,,0.00,meteohub,2013-04-14 13:25:00,
2013-04-14 08:30:00,55.4,39.6,29.31,East,90,3.0,8.0,55,0.00,,,0.00,meteohub,2013-04-14 13:30:00,
2013-04-14 08:31:00,55.6,39.7,29.31,South,180,5.0,8.0,55,0.00,,,0.00,meteohub,2013-04-14 13:31:00,
2013-04-14 08:37:00,56.3,39.9,29.31,South,180,4.0,8.0,54,0.00,,,0.00,meteohub,2013-04-14 13:37:00,
2013-04-14 08:42:00,56.7,40.3,29.31,SE,135,3.0,7.0,54,0.00,,,0.00,meteohub,2013-04-14 13:42:00,
2013-04-14 08:47:00,57.4,39.9,29.31,ESE,112,4.0,6.0,52,0.00,,,0.00,meteohub,2013-04-14 13:47:00,
2013-04-14 08:52:00,57.9,39.9,29.31,SSE,158,4.0,6.0,51,0.00,,,0.00,meteohub,2013-04-14 13:52:00,
2013-04-14 08:57:00,58.6,40.6,29.31,ESE,112,5.0,6.0,51,0.00,,,0.00,meteohub,2013-04-14 13:57:00,
2013-04-14 09:03:00,59.0,40.5,29.31,SW,225,2.0,6.0,50,0.00,,,0.00,meteohub,2013-04-14 14:03:00,
2013-04-14 09:08:00,59.4,39.7,29.31,SSW,202,2.0,6.0,48,0.00,,,0.00,meteohub,2013-04-14 14:08:00,
2013-04-14 09:13:00,59.7,40.1,29.31,South,180,8.0,8.0,48,0.00,,,0.00,meteohub,2013-04-14 14:13:00,
2013-04-14 09:18:00,60.8,40.5,29.31,South,180,4.0,9.0,47,0.00,,,0.00,meteohub,2013-04-14 14:18:00,
2013-04-14 09:23:00,61.3,41.0,29.31,South,180,9.0,9.0,47,0.00,,,0.00,meteohub,2013-04-14 14:23:00,
2013-04-14 09:29:00,62.2,40.6,29.31,South,180,4.0,9.0,45,0.00,,,0.00,meteohub,2013-04-14 14:29:00,
2013-04-14 09:34:00,63.1,40.8,29.31,SE,135,7.0,9.0,44,0.00,,,0.00,meteohub,2013-04-14 14:34:00,
2013-04-14 09:39:00,63.5,40.1,29.31,SSE,158,3.0,9.0,42,0.00,,,0.00,meteohub,2013-04-14 14:39:00,
2013-04-14 09:44:00,64.4,41.4,29.31,SSW,202,4.0,10.0,43,0.00,,,0.00,meteohub,2013-04-14 14:44:00,
2013-04-14 09:50:00,64.9,40.1,29.31,South,180,3.0,10.0,40,0.00,,,0.00,meteohub,2013-04-14 14:50:00,
2013-04-14 09:55:00,65.3,40.5,29.28,SSW,202,6.0,10.0,40,0.00,,,0.00,meteohub,2013-04-14 14:55:00,
2013-04-14 10:00:00,66.0,41.0,29.28,SE,135,2.0,10.0,40,0.00,,,0.00,meteohub,2013-04-14 15:00:00,
2013-04-14 10:05:00,66.7,42.3,29.28,SE,135,3.0,10.0,41,0.00,,,0.00,meteohub,2013-04-14 15:05:00,
2013-04-14 10:10:00,67.3,42.1,29.28,SSE,158,6.0,8.0,40,0.00,,,0.00,meteohub,2013-04-14 15:10:00,
2013-04-14 10:15:00,67.8,41.4,29.28,South,180,3.0,6.0,38,0.00,,,0.00,meteohub,2013-04-14 15:15:00,
2013-04-14 10:20:00,68.2,41.0,29.28,South,180,10.0,11.0,37,0.00,,,0.00,meteohub,2013-04-14 15:20:00,
2013-04-14 10:26:00,68.5,39.9,29.28,SE,135,12.0,13.0,35,0.00,,,0.00,meteohub,2013-04-14 15:26:00,
2013-04-14 10:31:00,69.1,40.3,29.28,SSE,158,4.0,13.0,35,0.00,,,0.00,meteohub,2013-04-14 15:31:00,
2013-04-14 10:36:00,69.4,40.6,29.25,West,270,2.0,13.0,35,0.00,,,0.00,meteohub,2013-04-14 15:36:00,
2013-04-14 10:41:00,70.0,40.3,29.25,SSE,158,6.0,12.0,34,0.00,,,0.00,meteohub,2013-04-14 15:41:00,
2013-04-14 10:46:00,70.3,40.6,29.25,SE,135,5.0,11.0,34,0.00,,,0.00,meteohub,2013-04-14 15:46:00,
2013-04-14 10:52:00,70.9,41.2,29.25,SW,225,6.0,11.0,34,0.00,,,0.00,meteohub,2013-04-14 15:52:00,
2013-04-14 10:57:00,71.4,40.8,29.28,South,180,6.0,10.0,33,0.00,,,0.00,meteohub,2013-04-14 15:57:00,
2013-04-14 11:02:00,72.0,41.4,29.28,South,180,5.0,10.0,33,0.00,,,0.00,meteohub,2013-04-14 16:02:00,
2013-04-14 11:07:00,72.0,40.5,29.28,SSE,158,5.0,10.0,32,0.00,,,0.00,meteohub,2013-04-14 16:07:00,
2013-04-14 11:12:00,72.3,40.8,29.28,WSW,248,7.0,9.0,32,0.00,,,0.00,meteohub,2013-04-14 16:12:00,
2013-04-14 11:17:00,73.0,41.5,29.28,SSW,202,3.0,10.0,32,0.00,,,0.00,meteohub,2013-04-14 16:17:00,
2013-04-14 11:22:00,72.9,41.4,29.28,South,180,3.0,10.0,32,0.00,,,0.00,meteohub,2013-04-14 16:22:00,
2013-04-14 11:27:00,72.7,40.3,29.28,South,180,9.0,10.0,31,0.00,,,0.00,meteohub,2013-04-14 16:27:00,
2013-04-14 11:33:00,73.0,41.5,29.28,SSE,158,3.0,10.0,32,0.00,,,0.00,meteohub,2013-04-14 16:33:00,
2013-04-14 11:38:00,73.4,41.0,29.28,SE,135,4.0,11.0,31,0.00,,,0.00,meteohub,2013-04-14 16:38:00,
2013-04-14 11:43:00,73.2,40.8,29.28,SSW,202,6.0,13.0,31,0.00,,,0.00,meteohub,2013-04-14 16:43:00,
2013-04-14 11:48:00,73.6,41.2,29.28,SSW,202,9.0,13.0,31,0.00,,,0.00,meteohub,2013-04-14 16:48:00,
2013-04-14 11:54:00,73.8,41.2,29.28,South,180,5.0,13.0,31,0.00,,,0.00,meteohub,2013-04-14 16:54:00,
2013-04-14 11:59:00,74.3,41.7,29.28,SSE,158,4.0,12.0,31,0.00,,,0.00,meteohub,2013-04-14 16:59:00,
2013-04-14 12:04:00,74.3,41.7,29.28,SE,135,6.0,9.0,31,0.00,,,0.00,meteohub,2013-04-14 17:04:00,
2013-04-14 12:09:00,74.8,42.3,29.28,SE,135,7.0,10.0,31,0.00,,,0.00,meteohub,2013-04-14 17:09:00,
2013-04-14 12:14:00,75.0,41.5,29.28,South,180,10.0,15.0,30,0.00,,,0.00,meteohub,2013-04-14 17:14:00,
2013-04-14 12:19:00,74.7,39.4,29.28,South,180,6.0,15.0,28,0.00,,,0.00,meteohub,2013-04-14 17:19:00,
2013-04-14 12:25:00,74.7,39.4,29.25,SSW,202,9.0,15.0,28,0.00,,,0.00,meteohub,2013-04-14 17:25:00,
2013-04-14 12:30:00,74.8,39.6,29.25,East,90,4.0,13.0,28,0.00,,,0.00,meteohub,2013-04-14 17:30:00,
2013-04-14 12:35:00,75.0,41.5,29.25,SSE,158,3.0,15.0,30,0.00,,,0.00,meteohub,2013-04-14 17:35:00,
2013-04-14 12:40:00,75.0,40.6,29.25,South,180,8.0,15.0,29,0.00,,,0.00,meteohub,2013-04-14 17:40:00,
2013-04-14 12:46:00,75.0,39.7,29.25,South,180,10.0,15.0,28,0.00,,,0.00,meteohub,2013-04-14 17:46:00,
2013-04-14 12:52:00,75.6,39.2,29.22,South,180,6.0,15.0,27,0.00,,,0.00,meteohub,2013-04-14 17:52:00,
2013-04-14 12:57:00,76.1,40.6,29.22,South,180,11.0,15.0,28,0.00,,,0.00,meteohub,2013-04-14 17:57:00,
2013-04-14 13:02:00,76.1,40.6,29.22,South,180,5.0,15.0,28,0.00,,,0.00,meteohub,2013-04-14 18:02:00,
2013-04-14 13:07:00,76.3,40.8,29.19,South,180,5.0,15.0,28,0.00,,,0.00,meteohub,2013-04-14 18:07:00,
2013-04-14 13:12:00,76.6,40.1,29.19,SE,135,6.0,13.0,27,0.00,,,0.00,meteohub,2013-04-14 18:12:00,
2013-04-14 13:17:00,76.8,39.4,29.19,SSW,202,6.0,13.0,26,0.00,,,0.00,meteohub,2013-04-14 18:17:00,
2013-04-14 13:22:00,77.0,37.4,29.22,South,180,17.0,17.0,24,0.00,,,0.00,meteohub,2013-04-14 18:22:00,
2013-04-14 13:28:00,77.4,37.8,29.22,South,180,13.0,20.0,24,0.00,,,0.00,meteohub,2013-04-14 18:28:00,
2013-04-14 13:33:00,77.4,37.8,29.22,ESE,112,4.0,20.0,24,0.00,,,0.00,meteohub,2013-04-14 18:33:00,
2013-04-14 13:39:00,77.7,38.1,29.22,South,180,11.0,20.0,24,0.00,,,0.00,meteohub,2013-04-14 18:39:00,
2013-04-14 13:44:00,78.1,38.3,29.22,SW,225,10.0,13.0,24,0.00,,,0.00,meteohub,2013-04-14 18:44:00,
2013-04-14 13:49:00,78.3,38.5,29.22,SSW,202,12.0,16.0,24,0.00,,,0.00,meteohub,2013-04-14 18:49:00,
2013-04-14 13:54:00,78.3,38.5,29.22,SSE,158,6.0,16.0,24,0.00,,,0.00,meteohub,2013-04-14 18:54:00,
2013-04-14 14:00:00,78.6,38.8,29.22,SE,135,4.0,16.0,24,0.00,,,0.00,meteohub,2013-04-14 19:00:00,
2013-04-14 14:05:00,78.6,38.8,29.22,WNW,292,6.0,15.0,24,0.00,,,0.00,meteohub,2013-04-14 19:05:00,
2013-04-14 14:10:00,78.6,38.8,29.22,SSE,158,6.0,15.0,24,0.00,,,0.00,meteohub,2013-04-14 19:10:00,
2013-04-14 14:15:00,79.5,39.6,29.22,SW,225,7.0,15.0,24,0.00,,,0.00,meteohub,2013-04-14 19:15:00,
2013-04-14 14:20:00,79.3,38.3,29.22,WSW,248,9.0,15.0,23,0.00,,,0.00,meteohub,2013-04-14 19:20:00,
2013-04-14 14:25:00,78.8,37.9,29.22,South,180,10.0,11.0,23,0.00,,,0.00,meteohub,2013-04-14 19:25:00,
2013-04-14 14:31:00,79.2,37.0,29.22,SSW,202,13.0,14.0,22,0.00,,,0.00,meteohub,2013-04-14 19:31:00,
2013-04-14 14:36:00,79.0,36.9,29.22,South,180,6.0,15.0,22,0.00,,,0.00,meteohub,2013-04-14 19:36:00,
2013-04-14 14:41:00,78.4,36.5,29.22,SSE,158,13.0,15.0,22,0.00,,,0.00,meteohub,2013-04-14 19:41:00,
2013-04-14 14:46:00,78.1,36.1,29.22,SSE,158,9.0,18.0,22,0.00,,,0.00,meteohub,2013-04-14 19:46:00,
2013-04-14 14:52:00,78.4,36.5,29.19,SW,225,11.0,18.0,22,0.00,,,0.00,meteohub,2013-04-14 19:52:00,
2013-04-14 14:57:00,79.2,37.0,29.19,SSW,202,8.0,18.0,22,0.00,,,0.00,meteohub,2013-04-14 19:57:00,
2013-04-14 15:02:00,79.3,37.2,29.19,South,180,6.0,16.0,22,0.00,,,0.00,meteohub,2013-04-14 20:02:00,
2013-04-14 15:07:00,79.9,37.8,29.19,South,180,4.0,15.0,22,0.00,,,0.00,meteohub,2013-04-14 20:07:00,
2013-04-14 15:13:00,79.3,37.2,29.19,SW,225,5.0,18.0,22,0.00,,,0.00,meteohub,2013-04-14 20:13:00,
2013-04-14 15:18:00,79.5,37.4,29.19,South,180,11.0,18.0,22,0.00,,,0.00,meteohub,2013-04-14 20:18:00,
2013-04-14 15:23:00,79.9,37.8,29.16,South,180,13.0,18.0,22,0.00,,,0.00,meteohub,2013-04-14 20:23:00,
2013-04-14 15:28:00,79.2,37.0,29.16,SSE,158,6.0,17.0,22,0.00,,,0.00,meteohub,2013-04-14 20:28:00,
2013-04-14 15:34:00,79.2,37.0,29.16,SW,225,11.0,13.0,22,0.00,,,0.00,meteohub,2013-04-14 20:34:00,
2013-04-14 15:39:00,78.8,36.9,29.16,South,180,13.0,17.0,22,0.00,,,0.00,meteohub,2013-04-14 20:39:00,
2013-04-14 15:44:00,78.8,36.9,29.16,SSW,202,9.0,17.0,22,0.00,,,0.00,meteohub,2013-04-14 20:44:00,
2013-04-14 15:49:00,78.4,36.5,29.16,South,180,9.0,17.0,22,0.00,,,0.00,meteohub,2013-04-14 20:49:00,
2013-04-14 15:54:00,78.6,36.7,29.13,SSW,202,7.0,17.0,22,0.00,,,0.00,meteohub,2013-04-14 20:54:00,
2013-04-14 15:59:00,78.3,37.4,29.13,SSE,158,10.0,17.0,23,0.00,,,0.00,meteohub,2013-04-14 20:59:00,
2013-04-14 16:04:00,78.3,37.4,29.13,SSE,158,6.0,17.0,23,0.00,,,0.00,meteohub,2013-04-14 21:04:00,
2013-04-14 16:10:00,77.4,36.7,29.16,South,180,17.0,17.0,23,0.00,,,0.00,meteohub,2013-04-14 21:10:00,
2013-04-14 16:15:00,77.5,35.8,29.16,SW,225,10.0,17.0,22,0.00,,,0.00,meteohub,2013-04-14 21:15:00,
2013-04-14 16:20:00,77.7,37.0,29.16,SSE,158,9.0,17.0,23,0.00,,,0.00,meteohub,2013-04-14 21:20:00,
2013-04-14 16:25:00,77.2,36.5,29.16,SSW,202,8.0,17.0,23,0.00,,,0.00,meteohub,2013-04-14 21:25:00,
2013-04-14 16:30:00,76.6,36.1,29.16,SE,135,6.0,19.0,23,0.00,,,0.00,meteohub,2013-04-14 21:30:00,
2013-04-14 16:36:00,76.5,36.0,29.16,South,180,11.0,19.0,23,0.00,,,0.00,meteohub,2013-04-14 21:36:00,
2013-04-14 16:41:00,76.1,35.6,29.16,South,180,9.0,15.0,23,0.00,,,0.00,meteohub,2013-04-14 21:41:00,
2013-04-14 16:46:00,75.9,35.4,29.16,West,270,11.0,15.0,23,0.00,,,0.00,meteohub,2013-04-14 21:46:00,
2013-04-14 16:51:00,75.9,35.4,29.16,East,90,13.0,15.0,23,0.00,,,0.00,meteohub,2013-04-14 21:51:00,
2013-04-14 16:56:00,75.7,35.4,29.16,SE,135,10.0,17.0,23,0.00,,,0.00,meteohub,2013-04-14 21:56:00,
2013-04-14 17:02:00,75.7,35.4,29.16,SSE,158,6.0,17.0,23,0.00,,,0.00,meteohub,2013-04-14 22:02:00,
2013-04-14 17:07:00,75.4,35.1,29.13,SSW,202,11.0,13.0,23,0.00,,,0.00,meteohub,2013-04-14 22:07:00,
2013-04-14 17:12:00,75.9,36.5,29.13,SSW,202,12.0,19.0,24,0.00,,,0.00,meteohub,2013-04-14 22:12:00,
2013-04-14 17:17:00,75.7,36.5,29.13,South,180,11.0,19.0,24,0.00,,,0.00,meteohub,2013-04-14 22:17:00,
2013-04-14 17:23:00,74.7,35.6,29.13,SSE,158,12.0,20.0,24,0.00,,,0.00,meteohub,2013-04-14 22:23:00,
2013-04-14 17:28:00,74.5,35.4,29.13,SSE,158,8.0,20.0,24,0.00,,,0.00,meteohub,2013-04-14 22:28:00,
2013-04-14 17:33:00,74.3,35.2,29.13,SSE,158,11.0,12.0,24,0.00,,,0.00,meteohub,2013-04-14 22:33:00,
2013-04-14 17:38:00,74.1,36.1,29.16,SW,225,11.0,19.0,25,0.00,,,0.00,meteohub,2013-04-14 22:38:00,
2013-04-14 17:43:00,73.9,36.0,29.16,SW,225,16.0,19.0,25,0.00,,,0.00,meteohub,2013-04-14 22:43:00,
2013-04-14 17:48:00,73.9,36.0,29.16,South,180,11.0,19.0,25,0.00,,,0.00,meteohub,2013-04-14 22:48:00,
2013-04-14 17:54:00,73.6,36.7,29.16,SSW,202,10.0,17.0,26,0.00,,,0.00,meteohub,2013-04-14 22:54:00,
2013-04-14 17:59:00,73.2,38.1,29.16,SSW,202,8.0,17.0,28,0.00,,,0.00,meteohub,2013-04-14 22:59:00,
2013-04-14 18:04:00,73.0,39.0,29.16,South,180,13.0,15.0,29,0.00,,,0.00,meteohub,2013-04-14 23:04:00,
2013-04-14 18:09:00,72.9,39.6,29.16,SW,225,9.0,16.0,30,0.00,,,0.00,meteohub,2013-04-14 23:09:00,
2013-04-14 18:15:00,72.7,40.3,29.16,SW,225,9.0,16.0,31,0.00,,,0.00,meteohub,2013-04-14 23:15:00,
2013-04-14 18:20:00,72.5,41.0,29.16,SSW,202,9.0,19.0,32,0.00,,,0.00,meteohub,2013-04-14 23:20:00,
2013-04-14 18:25:00,72.1,40.6,29.16,SSW,202,4.0,19.0,32,0.00,,,0.00,meteohub,2013-04-14 23:25:00,
2013-04-14 18:30:00,72.0,40.5,29.16,SSE,158,3.0,17.0,32,0.00,,,0.00,meteohub,2013-04-14 23:30:00,
2013-04-14 18:35:00,71.8,40.3,29.16,SSW,202,5.0,15.0,32,0.00,,,0.00,meteohub,2013-04-14 23:35:00,
2013-04-14 18:41:00,71.6,41.0,29.13,SSW,202,4.0,12.0,33,0.00,,,0.00,meteohub,2013-04-14 23:41:00,
2013-04-14 18:46:00,71.2,41.5,29.13,South,180,9.0,12.0,34,0.00,,,0.00,meteohub,2013-04-14 23:46:00,
2013-04-14 18:51:00,70.9,41.9,29.16,South,180,6.0,12.0,35,0.00,,,0.00,meteohub,2013-04-14 23:51:00,
2013-04-14 18:57:00,70.7,42.4,29.16,South,180,5.0,10.0,36,0.00,,,0.00,meteohub,2013-04-14 23:57:00,
2013-04-14 19:02:00,70.3,42.8,29.16,SE,135,13.0,13.0,37,0.00,,,0.00,meteohub,2013-04-15 00:02:00,
2013-04-14 19:07:00,70.2,42.6,29.16,South,180,10.0,13.0,37,0.00,,,0.00,meteohub,2013-04-15 00:07:00,
2013-04-14 19:12:00,70.0,43.2,29.16,South,180,7.0,13.0,38,0.00,,,0.00,meteohub,2013-04-15 00:12:00,
2013-04-14 19:17:00,69.6,43.5,29.16,SSE,158,12.0,13.0,39,0.00,,,0.00,meteohub,2013-04-15 00:17:00,
2013-04-14 19:22:00,69.3,43.3,29.16,South,180,4.0,15.0,39,0.00,,,0.00,meteohub,2013-04-15 00:22:00,
2013-04-14 19:28:00,68.9,43.0,29.16,SSE,158,8.0,15.0,39,0.00,,,0.00,meteohub,2013-04-15 00:28:00,
2013-04-14 19:33:00,68.7,42.8,29.16,SSW,202,6.0,13.0,39,0.00,,,0.00,meteohub,2013-04-15 00:33:00,
2013-04-14 19:38:00,68.5,43.3,29.19,SSE,158,3.0,13.0,40,0.00,,,0.00,meteohub,2013-04-15 00:38:00,
2013-04-14 19:43:00,68.4,43.7,29.19,SSE,158,7.0,11.0,41,0.00,,,0.00,meteohub,2013-04-15 00:43:00,
2013-04-14 19:48:00,68.2,43.5,29.19,South,180,9.0,11.0,41,0.00,,,0.00,meteohub,2013-04-15 00:48:00,
2013-04-14 19:54:00,68.0,43.5,29.19,SE,135,8.0,11.0,41,0.00,,,0.00,meteohub,2013-04-15 00:54:00,
2013-04-14 19:59:00,67.8,43.3,29.19,SSW,202,11.0,15.0,41,0.00,,,0.00,meteohub,2013-04-15 00:59:00,
2013-04-14 20:04:00,67.6,43.2,29.19,West,270,5.0,15.0,41,0.00,,,0.00,meteohub,2013-04-15 01:04:00,
2013-04-14 20:09:00,67.5,43.0,29.19,SSE,158,4.0,11.0,41,0.00,,,0.00,meteohub,2013-04-15 01:09:00,
2013-04-14 20:14:00,67.5,43.0,29.19,SSE,158,4.0,11.0,41,0.00,,,0.00,meteohub,2013-04-15 01:14:00,
2013-04-14 20:19:00,67.5,41.7,29.19,ESE,112,9.0,12.0,39,0.00,,,0.00,meteohub,2013-04-15 01:19:00,
2013-04-14 20:24:00,67.3,41.5,29.19,SW,225,7.0,12.0,39,0.00,,,0.00,meteohub,2013-04-15 01:24:00,
2013-04-14 20:29:00,67.3,40.8,29.19,SSE,158,11.0,12.0,38,0.00,,,0.00,meteohub,2013-04-15 01:29:00,
2013-04-14 20:34:00,66.9,40.5,29.19,SSE,158,9.0,13.0,38,0.00,,,0.00,meteohub,2013-04-15 01:34:00,
2013-04-14 20:39:00,66.7,39.7,29.19,SE,135,5.0,13.0,37,0.00,,,0.00,meteohub,2013-04-15 01:39:00,
2013-04-14 20:45:00,66.7,39.7,29.19,SSE,158,3.0,15.0,37,0.00,,,0.00,meteohub,2013-04-15 01:45:00,
2013-04-14 20:50:00,66.6,39.6,29.22,East,90,5.0,15.0,37,0.00,,,0.00,meteohub,2013-04-15 01:50:00,
2013-04-14 20:55:00,66.2,39.9,29.22,SSW,202,7.0,12.0,38,0.00,,,0.00,meteohub,2013-04-15 01:55:00,
2013-04-14 21:01:00,66.2,39.2,29.22,SSE,158,8.0,13.0,37,0.00,,,0.00,meteohub,2013-04-15 02:01:00,
2013-04-14 21:06:00,66.0,39.7,29.22,SE,135,5.0,13.0,38,0.00,,,0.00,meteohub,2013-04-15 02:06:00,
2013-04-14 21:11:00,65.7,40.1,29.22,SSE,158,6.0,13.0,39,0.00,,,0.00,meteohub,2013-04-15 02:11:00,
2013-04-14 21:16:00,65.7,40.1,29.22,SSE,158,2.0,10.0,39,0.00,,,0.00,meteohub,2013-04-15 02:16:00,
2013-04-14 21:22:00,65.5,39.9,29.22,SSE,158,6.0,10.0,39,0.00,,,0.00,meteohub,2013-04-15 02:22:00,
2013-04-14 21:27:00,65.5,39.2,29.22,East,90,4.0,12.0,38,0.00,,,0.00,meteohub,2013-04-15 02:27:00,
2013-04-14 21:32:00,65.3,39.0,29.22,ESE,112,8.0,17.0,38,0.00,,,0.00,meteohub,2013-04-15 02:32:00,
2013-04-14 21:37:00,64.9,38.8,29.22,SE,135,6.0,17.0,38,0.00,,,0.00,meteohub,2013-04-15 02:37:00,
2013-04-14 21:42:00,64.4,38.3,29.22,ENE,68,6.0,17.0,38,0.00,,,0.00,meteohub,2013-04-15 02:42:00,
2013-04-14 21:47:00,64.2,38.8,29.22,SSE,158,11.0,15.0,39,0.00,,,0.00,meteohub,2013-04-15 02:47:00,
2013-04-14 21:53:00,63.9,39.0,29.19,SSE,158,4.0,15.0,40,0.00,,,0.00,meteohub,2013-04-15 02:53:00,
2013-04-14 21:58:00,63.7,39.0,29.19,SSE,158,12.0,12.0,40,0.00,,,0.00,meteohub,2013-04-15 02:58:00,
2013-04-14 22:03:00,63.5,39.4,29.19,ESE,112,4.0,13.0,41,0.00,,,0.00,meteohub,2013-04-15 03:03:00,
2013-04-14 22:09:00,63.5,39.4,29.19,ESE,112,4.0,13.0,41,0.00,,,0.00,meteohub,2013-04-15 03:09:00,
2013-04-14 22:14:00,63.1,39.0,29.19,SE,135,4.0,13.0,41,0.00,,,0.00,meteohub,2013-04-15 03:14:00,
2013-04-14 22:19:00,63.1,39.7,29.19,ESE,112,4.0,12.0,42,0.00,,,0.00,meteohub,2013-04-15 03:19:00,
2013-04-14 22:24:00,63.0,39.6,29.22,SE,135,4.0,12.0,42,0.00,,,0.00,meteohub,2013-04-15 03:24:00,
2013-04-14 22:30:00,62.8,39.9,29.22,SE,135,2.0,12.0,43,0.00,,,0.00,meteohub,2013-04-15 03:30:00,
2013-04-14 22:35:00,62.6,39.7,29.22,ESE,112,7.0,14.0,43,0.00,,,0.00,meteohub,2013-04-15 03:35:00,
2013-04-14 22:40:00,62.4,40.3,29.19,ENE,68,4.0,15.0,44,0.00,,,0.00,meteohub,2013-04-15 03:40:00,
2013-04-14 22:45:00,62.2,40.1,29.19,East,90,4.0,15.0,44,0.00,,,0.00,meteohub,2013-04-15 03:45:00,
2013-04-14 22:50:00,62.1,40.5,29.19,WSW,248,6.0,15.0,45,0.00,,,0.00,meteohub,2013-04-15 03:50:00,
2013-04-14 22:55:00,61.9,40.3,29.22,West,270,3.0,15.0,45,0.00,,,0.00,meteohub,2013-04-15 03:55:00,
2013-04-14 23:00:00,61.9,40.3,29.22,ESE,112,3.0,15.0,45,0.00,,,0.00,meteohub,2013-04-15 04:00:00,
2013-04-14 23:01:00,61.7,40.1,29.22,South,180,4.0,15.0,45,0.00,,,0.00,meteohub,2013-04-15 04:01:00,
2013-04-14 23:03:00,61.7,40.8,29.22,SSE,158,3.0,15.0,46,0.00,,,0.00,meteohub,2013-04-15 04:03:00,
2013-04-14 23:09:00,61.3,40.5,29.25,SSE,158,6.0,13.0,46,0.00,,,0.00,meteohub,2013-04-15 04:09:00,
2013-04-14 23:14:00,61.3,40.5,29.25,ESE,112,4.0,11.0,46,0.00,,,0.00,meteohub,2013-04-15 04:14:00,
2013-04-14 23:19:00,61.0,40.1,29.25,SSE,158,3.0,9.0,46,0.00,,,0.00,meteohub,2013-04-15 04:19:00,
2013-04-14 23:24:00,60.8,40.5,29.22,ENE,68,5.0,9.0,47,0.00,,,0.00,meteohub,2013-04-15 04:24:00,
2013-04-14 23:29:00,60.6,40.3,29.22,South,180,3.0,9.0,47,0.00,,,0.00,meteohub,2013-04-15 04:29:00,
2013-04-14 23:35:00,60.4,40.6,29.22,SE,135,4.0,9.0,48,0.00,,,0.00,meteohub,2013-04-15 04:35:00,
2013-04-14 23:40:00,60.3,40.5,29.25,South,180,1.0,10.0,48,0.00,,,0.00,meteohub,2013-04-15 04:40:00,
2013-04-14 23:45:00,60.1,40.8,29.25,South,180,4.0,11.0,49,0.00,,,0.00,meteohub,2013-04-15 04:45:00,
2013-04-14 23:50:00,60.1,40.8,29.25,SE,135,4.0,11.0,49,0.00,,,0.00,meteohub,2013-04-15 04:50:00,
2013-04-14 23:55:00,59.9,41.2,29.25,SE,135,9.0,11.0,50,0.00,,,0.00,meteohub,2013-04-15 04:55:00,